Location: Bush Observatory
(40.2653°N, 94.3194°W)
Time: 21:44:04
(UTC-05:00)

Vanguard 1 - Visible Passes

Search period start: 24 August 2016 00:00
Search period end: 03 September 2016 00:00
Orbit: 649 x 3835 km, 34.2° (Epoch: 23 August)

Date Brightness Start Highest point End Pass type
(mag) Time Alt. Az. Time Alt. Az. Time Alt. Az.
24 Aug 11.8 00:07:48 10° W 00:22:19 52° SW 00:22:19 52° SW visible
24 Aug 12.0 22:01:22 10° W 22:22:20 70° S 22:29:13 36° ESE visible
25 Aug 12.1 00:29:39 10° W 00:41:54 42° WSW 00:41:54 42° WSW visible
25 Aug 12.8 19:55:43 10° WSW 20:18:53 67° SSE 20:34:28 10° E visible
25 Aug 11.8 22:23:10 10° W 22:43:39 68° S 22:48:47 45° SE visible
26 Aug 12.5 00:51:36 10° W 01:01:29 32° WSW 01:01:29 32° WSW visible
26 Aug 12.7 20:17:09 10° WSW 20:40:23 71° S 20:55:37 10° E visible
26 Aug 11.7 22:45:00 10° W 23:04:52 64° SSW 23:08:21 52° SSE visible
27 Aug 12.8 01:13:43 10° W 01:21:03 24° WSW 01:21:03 24° WSW visible
27 Aug 12.6 20:38:44 10° WSW 21:01:54 72° S 21:15:14 16° E visible
27 Aug 11.8 23:06:51 10° W 23:25:57 58° SSW 23:27:55 54° S visible
28 Aug 13.1 01:36:13 10° W 01:40:36 17° W 01:40:36 17° W visible
28 Aug 12.5 21:00:26 10° W 21:23:23 72° S 21:34:47 22° ESE visible
28 Aug 12.0 23:28:45 10° W 23:46:53 50° SSW 23:47:28 50° SSW visible
29 Aug 13.4 01:59:29 10° W 02:00:09 11° W 02:00:09 11° W visible
29 Aug 12.4 21:22:11 10° W 21:44:49 70° S 21:54:20 29° ESE visible
29 Aug 12.3 23:50:44 10° W 00:07:02 42° SW 00:07:02 42° SW visible
30 Aug 12.2 21:43:59 10° W 22:06:09 66° SSW 22:13:55 36° SE visible
31 Aug 12.6 00:12:54 10° W 00:26:36 33° SW 00:26:36 33° SW visible
31 Aug 12.9 19:38:24 10° WSW 20:02:06 74° S 20:19:43 10° E visible
31 Aug 12.2 22:05:49 10° W 22:27:20 60° SSW 22:33:29 41° SSE visible
01 Sep 12.9 00:35:22 10° W 00:46:11 25° WSW 00:46:11 25° WSW visible
01 Sep 12.9 19:59:59 10° W 20:23:42 73° S 20:40:23 12° ESE visible
01 Sep 12.2 22:27:42 10° W 22:48:21 53° SSW 22:53:05 43° SSE visible
02 Sep 13.2 00:58:29 10° W 01:05:46 18° WSW 01:05:46 18° WSW visible
02 Sep 12.8 20:21:39 10° W 20:45:14 71° S 21:00:01 17° ESE visible
02 Sep 12.4 22:49:40 10° W 23:09:11 45° SW 23:12:42 41° S visible
